Погода в Фоминском

Россия / Костромская область     58°09′02″N   41°02′36″E
темп.,
°C
ветер,
м/с
пор.,
м/с
влажн.,
%
обл.,
%
осадки,
мм/ч
давл.,
гПа
погр.,
м
14 июня, пн
пн1400:00+14юз11945 0.2 100911
03:00+13юз22965 0.2 101018
06:00+16ююз139310 0.0 1011117
09:00+22юз24625 0.0 1012653
12:00+24зюз24495 1.3 10121436
15:00+24з354798 1.3 10131231
18:00+18ююв017799 0.2 101315
21:00+17сз22888 0.3 101416
15 июня, вт
вт1500:00+14с2296100 0.0 101529
03:00+13ссв229769 0.0 101532
06:00+16всв11865 0.0 1014141
09:00+22ю12635 0.0 1014781
12:00+25юз355064 0.1 10121854
15:00+24ююз455591 0.2 10111043
18:00+22ююз36774 0.8 1009254
21:00+18юз229137 1.4 100913
16 июня, ср
ср1600:00+17ююз2292100 0.1 100840
03:00+15з119437 0.1 100813
06:00+16сз259494 0.1 1009220
09:00+16ссз3883100 0.8 1011416
12:00+21сз474866 0.0 10111797
15:00+22сз57325 0.0 10122507
18:00+21сз474118 0.0 10132619
21:00+14ссз267092 0.0 1015129
17 июня, чт
чт1700:00+11зсз236649 0.0 101745
03:00+10зсз25675 0.0 101995
06:00+13зсз310630 0.0 1020392
09:00+17сз48400 0.0 10211343
12:00+21сз57335 0.0 10222153
15:00+22сз57349 0.0 10222383
18:00+20с36461 0.0 10231415
21:00+14зсз22660 0.0 102412
18 июня, пт
пт1800:00+11ссз117314 0.0 102510
03:00+11з11765 0.0 102710
06:00+14ю01686 0.0 102798
09:00+21ююз22505 0.0 1026609
12:00+24зюз3439100 0.0 10251724
15:00+26зюз4637100 0.0 10242114
18:00+25з365111 0.0 10231365
21:00+18юз39810 0.0 1023187